Location: Cucq
(50.4773°N, 1.6202°E)
Time: 20:27:20
(UTC+00:00)

CZ-2D R/B - Pass Details

Date: 07 August 2020
Orbit: 792 x 845 km, 98.7° (Epoch: 21 September)

Event Time Altitude Azimuth Distance (km) Brightness Sun altitude
Rises 03:49:14 0° 3° (N) 3,407 6.0 -6.4°
Reaches altitude 10° 03:52:50 10° 339° (NNW) 2,474 4.8 -6.0°
Maximum altitude 03:55:24 14° 311° (NW) 2,226 4.3 -5.6°
Drops below altitude 10° 03:57:58 10° 283° (WNW) 2,472 4.2 -5.3°
Enters shadow 04:00:42 - 263° (W) 3,139 4.6 -4.9°
